Regional Weather Roundup
Issued by NWS

Home | Current Version | Previous Version | Text Only | Print | Product List | Glossary Off
Versions: 1 2 3 4 5 6 7 8 9 10 11 12 13 14 15 16 17 18 19 20 21 22 23 24 25 26 27 28 29 30 31 32 33 34 35 36 37 38 39 40 41 42 43 44 45 46 47 48 49 50

000
ASUS45 KBOI 260810
RWRID
WEATHER ROUNDUP FOR IDAHO
NATIONAL WEATHER SERVICE BOISE ID
200 AM MDT SUN APR 26 2015

NOTE: "FAIR" INDICATES FEW OR NO CLOUDS BELOW 12000 FEET
WITH NO SIGNIFICANT WEATHER AND/OR OBSTRUCTIONS TO VISIBILITY

IDZ012-014-260900-
SOUTHWEST IDAHO


CITY           SKY/WX    TMP DP  RH WIND       PRES   REMARKS
BOISE          CLEAR     40  31  70 NW8       29.94R WCI  34
CALDWELL       MOCLDY    41  25  52 W15       29.97R
MOUNTAIN HOME  CLEAR     39  29  65 W16       29.91R WCI  31
$$

IDZ016-017-260900-
SOUTHCENTRAL IDAHO


CITY           SKY/WX    TMP DP  RH WIND       PRES   REMARKS
BURLEY         CLOUDY    38  30  73 W17G25    29.83R WCI  28
JEROME         MOCLDY    37  29  72 SW17      29.86R WCI  27
TWIN FALLS     MOCLDY    39  28  64 SW22      29.87R WCI  29
$$

IDZ019>023-260900-
SOUTHEAST IDAHO


CITY           SKY/WX    TMP DP  RH WIND       PRES   REMARKS
IDAHO FALLS    CLOUDY    43  35  73 S14       29.77R
POCATELLO      CLOUDY    40  38  93 SW15      29.81S WCI  32
REXBURG        LGT RAIN  41  35  79 S13       29.76S
$$

IDZ006-010-011-018-031-032-260900-
CENTRAL IDAHO MOUNTAINS


CITY           SKY/WX    TMP DP  RH WIND       PRES   REMARKS
MCCALL         CLOUDY    33  24  69 NW8       29.91R WCI  26
HAILEY         CLOUDY    36  32  87 NW7       29.82S WCI  30
STANLEY          N/A     31  24  75 W3        29.85S
SALMON         CLOUDY    39  36  87 SW6       29.85R WCI  35
CHALLIS        LGT RAIN  35  34  96 CALM      29.84R
$$

IDZ002-004-006-007-026-260900-
NORTHERN IDAHO


CITY           SKY/WX    TMP DP  RH WIND       PRES   REMARKS
LEWISTON       PTCLDY    41  33  73 SW8       30.01R
LOWELL           N/A     44  42  93 CALM      30.01R
COEUR D`ALENE  PTCLDY    36  32  87 CALM      30.01R
MULLAN PASS    CLOUDY    27  26  96 NW5       29.92R FOG     WCI  22
$$


USA.gov is the U.S. government's official web portal to all federal, state and local government web resources and services.